When you browse on this site, cookies collect data to enhance your experience and personalize the content and advertising you see.
Visit our Privacy Policy to learn more. By continuing to use the site, you agree to this use of cookies and data.
  • In Spain
  • List of Countries
  • For 7 days
  • Water Temperature
  • Satellite Maps
  • Weather Map
  • Weather Widgets
  • user-avatar
    Login

    Hourly Weather Porod

    Today, 22 May, Wednesday

    Time Temperature Precipitation Wind Pressure Humidity
    00:00 +35°C° 0 mm 4 mps 727 mmHg 33%
    01:00 +35°C° 0 mm 4 mps 728 mmHg 38%
    02:00 +33°C° 0 mm 5 mps 728 mmHg 43%
    03:00 +32°C° 0 mm 5 mps 728 mmHg 49%
    04:00 +30°C° 0 mm 6 mps 728 mmHg 54%
    05:00 +30°C° 0 mm 6 mps 728 mmHg 55%
    06:00 +30°C° 0 mm 5 mps 728 mmHg 56%
    07:00 +30°C° 0 mm 4 mps 728 mmHg 56%
    08:00 +34°C° 0 mm 4 mps 729 mmHg 48%
    09:00 +37°C° 0 mm 5 mps 729 mmHg 40%
    10:00 +40°C° 0 mm 5 mps 729 mmHg 32%
    11:00 +42°C° 0 mm 4 mps 729 mmHg 24%
    12:00 +44°C° 0 mm 3 mps 728 mmHg 17%
    13:00 +46°C° 0 mm 2 mps 728 mmHg 10%
    14:00 +46°C° 0 mm 2 mps 727 mmHg 9%
    15:00 +46°C° 0 mm 2 mps 727 mmHg 8%
    16:00 +46°C° 0 mm 3 mps 726 mmHg 7%
    17:00 +42°C° 0 mm 2 mps 726 mmHg 9%
    18:00 +40°C° 0 mm 2 mps 726 mmHg 10%
    19:00 +36°C° 0 mm 1 mps 726 mmHg 12%
    20:00 +35°C° 0 mm 1 mps 726 mmHg 12%
    21:00 +34°C° 0 mm 1 mps 727 mmHg 13%
    22:00 +34°C° 0 mm 1 mps 727 mmHg 14%
    23:00 +33°C° 0 mm 1 mps 727 mmHg 14%

    Tomorrow, 23 May, Thursday

    Time Temperature Precipitation Wind Pressure Humidity
    00:00 +33°C° 0 mm 1 mps 727 mmHg 15%
    01:00 +32°C° 0 mm 1 mps 727 mmHg 15%
    02:00 +31°C° 0 mm 1 mps 726 mmHg 16%
    03:00 +31°C° 0 mm 1 mps 726 mmHg 17%
    04:00 +30°C° 0 mm 1 mps 726 mmHg 18%
    05:00 +31°C° 0 mm 1 mps 726 mmHg 17%
    06:00 +34°C° 0 mm 2 mps 727 mmHg 16%
    07:00 +35°C° 0 mm 2 mps 727 mmHg 16%
    08:00 +38°C° 0 mm 2 mps 728 mmHg 13%
    09:00 +40°C° 0 mm 1 mps 728 mmHg 11%
    10:00 +43°C° 0 mm 1 mps 728 mmHg 9%
    11:00 +45°C° 0 mm 2 mps 728 mmHg 7%
    12:00 +46°C° 0 mm 3 mps 728 mmHg 5%
    13:00 +49°C° 0 mm 4 mps 727 mmHg 4%
    14:00 +49°C° 0 mm 4 mps 726 mmHg 3%
    15:00 +49°C° 0 mm 4 mps 726 mmHg 3%
    16:00 +49°C° 0 mm 4 mps 725 mmHg 3%
    17:00 +45°C° 0 mm 4 mps 725 mmHg 4%
    18:00 +43°C° 0 mm 4 mps 725 mmHg 4%
    19:00 +39°C° 0 mm 3 mps 726 mmHg 5%
    20:00 +38°C° 0 mm 3 mps 726 mmHg 5%
    21:00 +37°C° 0 mm 3 mps 727 mmHg 6%
    22:00 +37°C° 0 mm 3 mps 727 mmHg 6%
    23:00 +36°C° 0 mm 3 mps 727 mmHg 6%

    Day after tomorrow, 24 May, Friday

    Time Temperature Precipitation Wind Pressure Humidity
    00:00 +35°C° 0 mm 3 mps 726 mmHg 6%
    01:00 +34°C° 0 mm 3 mps 726 mmHg 7%
    02:00 +32°C° 0 mm 2 mps 725 mmHg 7%
    03:00 +31°C° 0 mm 1 mps 725 mmHg 7%
    04:00 +29°C° 0 mm 1 mps 725 mmHg 8%
    05:00 +31°C° 0 mm 1 mps 725 mmHg 7%
    06:00 +34°C° 0 mm 2 mps 726 mmHg 6%
    07:00 +36°C° 0 mm 2 mps 727 mmHg 5%
    08:00 +38°C° 0 mm 2 mps 727 mmHg 5%
    09:00 +41°C° 0 mm 1 mps 728 mmHg 4%
    10:00 +40°C° 0 mm 0 mps 728 mmHg 3%
    11:00 +44°C° 0 mm 1 mps 728 mmHg 3%
    12:00 +46°C° 0 mm 2 mps 727 mmHg 3%
    13:00 +48°C° 0 mm 3 mps 727 mmHg 3%
    14:00 +48°C° 0 mm 3 mps 726 mmHg 3%
    15:00 +48°C° 0 mm 3 mps 725 mmHg 3%
    16:00 +48°C° 0 mm 3 mps 725 mmHg 3%
    17:00 +43°C° 0 mm 2 mps 725 mmHg 4%
    18:00 +40°C° 0 mm 2 mps 725 mmHg 5%
    19:00 +36°C° 0 mm 1 mps 725 mmHg 6%
    20:00 +35°C° 0 mm 1 mps 725 mmHg 6%
    21:00 +34°C° 0 mm 1 mps 725 mmHg 7%
    22:00 +31°C° 0 mm 0 mps 726 mmHg 7%
    23:00 +33°C° 0 mm 1 mps 726 mmHg 7%

    25 May, Saturday

    Time Temperature Precipitation Wind Pressure Humidity
    00:00 +33°C° 0 mm 1 mps 725 mmHg 7%
    01:00 +34°C° 0 mm 2 mps 725 mmHg 7%
    02:00 +32°C° 0 mm 2 mps 725 mmHg 7%
    03:00 +32°C° 0 mm 2 mps 725 mmHg 8%
    04:00 +31°C° 0 mm 2 mps 725 mmHg 8%
    05:00 +32°C° 0 mm 2 mps 725 mmHg 8%
    06:00 +33°C° 0 mm 1 mps 726 mmHg 7%
    07:00 +34°C° 0 mm 1 mps 727 mmHg 6%
    08:00 +38°C° 0 mm 2 mps 727 mmHg 6%
    09:00 +42°C° 0 mm 3 mps 728 mmHg 5%
    10:00 +44°C° 0 mm 4 mps 728 mmHg 4%
    11:00 +45°C° 0 mm 4 mps 728 mmHg 4%
    12:00 +47°C° 0 mm 4 mps 727 mmHg 4%
    13:00 +49°C° 0 mm 4 mps 726 mmHg 4%
    14:00 +49°C° 0 mm 4 mps 726 mmHg 4%
    15:00 +49°C° 0 mm 4 mps 725 mmHg 4%
    16:00 +49°C° 0 mm 4 mps 725 mmHg 4%
    17:00 +45°C° 0 mm 4 mps 725 mmHg 4%
    18:00 +42°C° 0 mm 3 mps 725 mmHg 5%
    19:00 +38°C° 0 mm 2 mps 725 mmHg 6%
    20:00 +37°C° 0 mm 2 mps 726 mmHg 6%
    21:00 +36°C° 0 mm 2 mps 726 mmHg 7%
    22:00 +35°C° 0 mm 2 mps 727 mmHg 7%
    23:00 +35°C° 0 mm 2 mps 726 mmHg 10%

    26 May, Sunday

    Time Temperature Precipitation Wind Pressure Humidity
    00:00 +34°C° 0 mm 2 mps 726 mmHg 12%
    01:00 +33°C° 0 mm 3 mps 725 mmHg 15%
    02:00 +31°C° 0 mm 2 mps 725 mmHg 15%
    03:00 +31°C° 0 mm 2 mps 725 mmHg 15%
    04:00 +30°C° 0 mm 2 mps 725 mmHg 15%
    05:00 +31°C° 0 mm 2 mps 726 mmHg 16%
    06:00 +33°C° 0 mm 3 mps 726 mmHg 17%
    07:00 +34°C° 0 mm 3 mps 727 mmHg 17%
    08:00 +37°C° 0 mm 2 mps 727 mmHg 14%
    09:00 +40°C° 0 mm 2 mps 727 mmHg 11%
    10:00 +42°C° 0 mm 1 mps 727 mmHg 8%
    11:00 +45°C° 0 mm 2 mps 727 mmHg 7%
    12:00 +46°C° 0 mm 3 mps 726 mmHg 6%
    13:00 +49°C° 0 mm 4 mps 726 mmHg 5%
    14:00 +49°C° 0 mm 4 mps 725 mmHg 5%
    15:00 +49°C° 0 mm 4 mps 724 mmHg 5%
    16:00 +49°C° 0 mm 4 mps 724 mmHg 4%
    17:00 +46°C° 0 mm 3 mps 724 mmHg 5%
    18:00 +43°C° 0 mm 3 mps 724 mmHg 6%
    19:00 +40°C° 0 mm 3 mps 724 mmHg 7%
    20:00 +39°C° 0 mm 3 mps 725 mmHg 7%
    21:00 +38°C° 0 mm 2 mps 725 mmHg 8%
    22:00 +37°C° 0 mm 2 mps 725 mmHg 9%
    23:00 +36°C° 0 mm 2 mps 725 mmHg 9%

    27 May, Monday

    Time Temperature Precipitation Wind Pressure Humidity
    00:00 +34°C° 0 mm 1 mps 724 mmHg 10%
    01:00 +33°C° 0 mm 1 mps 724 mmHg 11%
    02:00 +33°C° 0 mm 1 mps 724 mmHg 11%
    03:00 +34°C° 0 mm 2 mps 724 mmHg 11%
    04:00 +34°C° 0 mm 2 mps 724 mmHg 10%
    05:00 +35°C° 0 mm 2 mps 725 mmHg 10%
    06:00 +35°C° 0 mm 2 mps 725 mmHg 9%
    07:00 +35°C° 0 mm 1 mps 726 mmHg 9%
    08:00 +38°C° 0 mm 2 mps 726 mmHg 8%
    09:00 +42°C° 0 mm 3 mps 726 mmHg 7%
    10:00 +45°C° 0 mm 4 mps 726 mmHg 6%
    11:00 +46°C° 0 mm 3 mps 726 mmHg 6%
    12:00 +47°C° 0 mm 2 mps 725 mmHg 5%
    13:00 +47°C° 0 mm 1 mps 725 mmHg 5%
    14:00 +47°C° 0 mm 1 mps 724 mmHg 5%
    15:00 +48°C° 0 mm 2 mps 724 mmHg 5%
    16:00 +49°C° 0 mm 2 mps 723 mmHg 5%
    17:00 +46°C° 0 mm 2 mps 724 mmHg 6%
    18:00 +43°C° 0 mm 2 mps 724 mmHg 7%
    19:00 +40°C° 0 mm 2 mps 724 mmHg 8%
    20:00 +39°C° 0 mm 2 mps 724 mmHg 8%
    21:00 +39°C° 0 mm 2 mps 724 mmHg 9%
    22:00 +38°C° 0 mm 2 mps 725 mmHg 9%
    23:00 +37°C° 0 mm 3 mps 724 mmHg 13%
    Show more